Location: Killam
(52.7910°N, 111.8608°W)
Time: 09:21:20
(UTC+00:00)

MOZHAYETS 4 - Visible Passes

Search period start: 01 December 2023 00:00
Search period end: 11 December 2023 00:00
Orbit: 656 x 672 km, 98.3° (Epoch: 01 December)

Date Brightness Start Highest point End Pass type
(mag) Time Alt. Az. Time Alt. Az. Time Alt. Az.
01 Dec 10.2 01:14:40 10° NNW 01:17:48 18° NW 01:20:55 10° W visible
02 Dec 8.4 00:07:41 10° N 00:12:13 56° WNW 00:16:43 10° SW visible
02 Dec 10.6 01:46:50 10° NNW 01:48:14 11° NW 01:49:39 10° WNW visible
03 Dec 9.4 00:38:49 10° N 00:42:55 32° WNW 00:47:00 10° SW visible
04 Dec 10.1 01:10:12 10° N 01:13:29 20° WNW 01:16:47 10° WSW visible
05 Dec 8.3 00:03:17 10° N 00:07:50 61° WNW 00:12:24 10° SSW visible
05 Dec 10.5 01:42:07 10° NNW 01:43:56 12° NW 01:45:45 10° WNW visible
06 Dec 9.2 00:34:22 10° N 00:38:33 35° WNW 00:42:43 10° SW visible
07 Dec 10.0 01:05:41 10° N 01:09:08 21° WNW 01:12:35 10° WSW visible
07 Dec 8.1 23:58:50 10° N 00:03:26 67° WNW 00:08:00 10° SSW visible
08 Dec 10.4 01:37:26 10° NNW 01:39:35 13° NW 01:41:43 10° WNW visible
09 Dec 9.1 00:29:53 10° N 00:34:09 38° WNW 00:38:24 10° SW visible
10 Dec 9.9 01:01:08 10° N 01:04:44 23° WNW 01:08:19 10° WSW visible
